Torna al catalogo

DELTA 1 DEB

AttivoSSO
NORAD 21273·DEBRIS·🇺🇸 United States

Lanciato Jun 12, 1975 da Vandenberg Space Force Base

Loading…

Prossimi Passaggi (prossime 24 ore)

TLE

AggiornatoSource: Space-Track

Epoca: Sep 14, 2026, 12:06 UTC

1 21273U 75052J   26257.50460561 -.00000006  00000-0  68086-4 0  9992
2 21273  99.6772  95.5539 0036670  41.6551 349.3338 13.37962158505320

Traccia DELTA 1 DEB in tempo reale con AllMySat

Download on the App Store